Location: Pardubice
(50.0330°N, 15.7830°E)
Time: 10:45:22
(UTC+02:00)

ISS - Visible Passes

Search period start: 20 September 2021 00:00
Search period end: 30 September 2021 00:00
Orbit: 419 x 423 km, 51.6° (Epoch: 20 September)

Date Brightness Start Highest point End Pass type
(mag) Time Alt. Az. Time Alt. Az. Time Alt. Az.
20 Sep -3.9 20:56:16 10° WSW 20:59:39 88° N 20:59:51 78° ENE visible
21 Sep -3.8 20:09:24 10° WSW 20:12:46 74° SSE 20:14:53 21° ENE visible
21 Sep -1.5 21:46:21 10° W 21:47:52 24° WNW 21:47:52 24° WNW visible
22 Sep -3.5 19:22:36 10° SW 19:25:54 55° SSE 19:29:13 10° ENE visible
22 Sep -3.6 20:59:24 10° W 21:02:46 66° N 21:02:49 66° N visible
23 Sep -3.6 20:12:27 10° W 20:15:50 74° N 20:17:43 24° ENE visible
23 Sep -1.2 21:49:28 10° WNW 21:50:42 21° WNW 21:50:42 21° WNW visible
24 Sep -3.7 19:25:32 10° WSW 19:28:55 86° N 19:32:18 10° ENE visible
24 Sep -3.3 21:02:33 10° WNW 21:05:33 60° NW 21:05:33 60° NW visible
25 Sep -3.5 20:15:36 10° W 20:18:58 64° N 20:20:24 30° ENE visible
25 Sep -0.9 21:52:32 10° WNW 21:53:23 17° WNW 21:53:23 17° WNW visible
26 Sep -3.5 19:28:39 10° W 19:32:01 66° N 19:35:14 11° ENE visible
26 Sep -2.9 21:05:37 10° WNW 21:08:13 50° WNW 21:08:13 50° WNW visible
27 Sep -3.7 20:18:42 10° WNW 20:22:05 73° N 20:23:03 43° E visible
27 Sep -0.5 21:55:38 10° W 21:56:02 13° W 21:56:02 13° W visible
28 Sep -3.6 19:31:46 10° WNW 19:35:08 66° N 19:37:54 14° E visible
28 Sep -2.3 21:08:40 10° WNW 21:10:53 35° W 21:10:53 35° W visible
29 Sep -3.8 20:21:45 10° WNW 20:25:07 75° SSW 20:25:45 54° SE visible
